Regional Weather Roundup
Issued by NWS

Home | Current Version | Previous Version | Text Only | Print | Product List | Glossary Off
Versions: 1 2 3 4 5 6 7 8 9 10 11 12 13 14 15 16 17 18 19 20 21 22 23 24 25 26 27 28

000
ASUS45 KSLC 302310
RWRUT

UTAH REGIONAL WEATHER ROUNDUP
NATIONAL WEATHER SERVICE SALT LAKE CITY UT
500 PM MDT MON MAY 30 2016

UTZ001>011-023>025-310000-

NORTHERN UTAH

CITY           SKY/WX    TMP DP  RH WIND       PRES   REMARKS
BRIGHAM CITY     N/A     74  38  27 NW6       30.06F
HILL AFB       SUNNY     73  40  29 W12       30.08F
LOGAN          MOSUNNY   73  42  32 N12G18    30.06F
OGDEN          SUNNY     75  39  27 NW9       30.06F
PROVO AIRPORT  MOSUNNY   77  39  25 W9        30.04F
SALT LAKE CITY PTSUNNY   78  35  21 NW12G21   30.05S
VERNAL         SUNNY     74  36  25 VRB3      30.01F
WENDOVER       SUNNY     79  36  21 W7G18     30.05F
HEBER CITY     MOSUNNY   73  30  20 W6        30.07S
WEST JORDAN    SUNNY     75  37  25 NW16      30.08S

$$

UTZ012>022-026-027-310000-

SOUTHERN/CENTRAL UTAH

CITY           SKY/WX    TMP DP  RH WIND       PRES   REMARKS
BLANDING       PTSUNNY   75  21  13 NW9       30.10S
BRYCE CANYON   PTSUNNY   60  31  33 NW10      30.21F
CEDAR CITY     MOSUNNY   74  34  23 SE15G23   30.05F
DELTA          SUNNY     77  28  16 NW12G25   30.03F
HANKSVILLE     PTSUNNY   81  30  16 S9        29.96S
MILFORD        MOSUNNY   81  28  14 MISG      30.02F
MOAB/CYNLANDS  PTSUNNY   83  24  11 SW8       29.92F
PRICE          SUNNY     77  23  13 W10G23    30.03F
ST GEORGE      PTCLDY    88  30  12 N15       29.93R

$$

REGIONAL REPORTS     COLORADO/ARIZONA

CITY           SKY/WX    TMP DP  RH WIND       PRES   REMARKS
CRAIG, CO      CLOUDY    68  37  32 W13       30.06F
GRAND JUNCTION CLOUDY    75  27  17 VRB3      29.99F
RIFLE          CLOUDY    66  31  27 NW20G30   30.06R
MONTROSE       CLOUDY    74  32  21 N7        30.04F
CORTEZ         SUNNY     75  22  13 N5        30.01F
PAGE, AZ       CLOUDY    84  29  13 N14       29.94F
GRAND CANYON   PTSUNNY   71  25  17 N12G20    30.11S
KINGMAN        CLOUDY    84  24  11 N13G28    29.94R
FLAGSTAFF      PTSUNNY   64  24  21 N12G21    30.12S

$$

REGIONAL REPORTS    NEVADA/IDAHO/WYOMING

CITY           SKY/WX    TMP DP  RH WIND       PRES   REMARKS
LAS VEGAS, NV  PTSUNNY   96  27   8 VRB6      29.79F HX  90
ELY            MOSUNNY   72  30  21 N8        30.12F
ELKO           SUNNY     76  25  15 MISG      30.11F
POCATELLO, ID  CLOUDY    70  27  20 SW21G28   30.09F
BURLEY         PTSUNNY   69  31  24 W17G26    30.08F
EVANSTON, WY   MOSUNNY   65  33  30 W15       30.17F
ROCK SPRINGS   MOSUNNY   66  24  20 W21G33    30.09F
KEMMERER         N/A     63  30  29 W20G32    30.16S

$$




USA.gov is the U.S. government's official web portal to all federal, state and local government web resources and services.